リニア彗星

C/2006 XA1 ( LINEAR )

English version
Home page
Updated on January 20, 2013

---------------------------------------------------------------------

・ プロフィール

発見日 2006年12月9日
発見光度 17.6等
発見者 Lincoln Laboratory Near-Earth Asteroid Research project

・ 写真集

・ 軌道要素

Epoch 2007 Aug. 8.0 TT = JDT 2454320.5
T 2007 July 21.90010 TT                                 MPC
q   1.8043726            (2000.0)            P               Q
z  +0.0040392      Peri.  187.41975     -0.81793717     -0.46661618
 +/-0.0000023      Node   318.66239     +0.55054312     -0.46507621
e   0.9927117      Incl.   30.63069     +0.16697620     -0.75231208
From 478 observations 2006 Dec. 9-2008 June 10, mean residual 0".5.

・ 星図

・ 光度変化

        m1 = 7.0 + 5 logΔ + 15.0 log r

---------------------------------------------------------------------

軌道要素はM.P.E.C. 2013-A29に掲載されたものです。
星図は StellaNavigator Ver.2.0 for Windows (アストロアーツ 編著 / アスキー出版局刊) で作成したものです。
光度グラフはComet for Windowsで作成したものです。

---------------------------------------------------------------------

Copyright(C) Seiichi Yoshida (comet@aerith.net). All rights reserved.